EW7912 Weather Reports


time (UTC)temp
C
wind
direction
speed
KPH
gust
KPH
rain 1hr
cm
rain 24hr
cm
rain mn
cm
humidity
%
barometer
mb
20260506110351 23 250 1.6 6.4 0.00 0.00 0.00 90 1009.0
20260506110333 23 238 1.6 6.4 0.00 0.00 0.00 90 1009.0
20260506105347 23 9 1.6 6.4 0.00 0.00 0.00 90 1008.8
20260506104848 23 217 1.6 6.4 0.00 0.00 0.00 90 1008.7
20260506104608 23 177 1.6 6.4 0.00 0.00 0.00 90 1008.8
20260506103848 23 241 1.6 6.4 0.00 0.00 0.00 90 1008.7
20260506103344 23 207 1.6 4.8 0.00 0.00 0.00 90 1008.6
20260506103327 23 230 1.6 4.8 0.00 0.00 0.00 90 1008.6
20260506102343 23 251 1.6 9.7 0.00 0.00 0.00 90 1008.6
20260506101844 23 197 1.6 9.7 0.00 0.00 0.00 90 1008.7
20260506101344 23 265 1.6 8.0 0.00 0.00 0.00 90 1008.5
20260506100843 23 213 1.6 4.8 0.00 0.00 0.00 90 1008.5
20260506100345 23 201 1.6 4.8 0.00 0.00 0.00 90 1008.5
20260506095846 23 290 1.6 9.7 0.00 0.00 0.00 90 1008.5
20260506095344 23 252 1.6 9.7 0.00 0.00 0.00 90 1008.5
20260506094844 23 249 1.6 6.4 0.00 0.00 0.00 90 1008.4
20260506094541 23 236 1.6 6.4 0.00 0.00 0.00 90 1008.5
20260506094430 23 235 1.6 6.4 0.00 0.00 0.00 90 1008.5
20260506093326 23 250 1.6 6.4 0.00 0.00 0.00 90 1008.5
20260506092820 23 248 0.0 4.8 0.00 0.00 0.00 90 1008.4
20260506092315 23 229 1.6 6.4 0.00 0.00 0.00 90 1008.4
20260506092025 23 262 1.6 8.0 0.00 0.00 0.00 90 1008.4
20260506091303 23 202 1.6 8.0 0.00 0.00 0.00 90 1008.3
20260506090756 23 228 1.6 8.0 0.00 0.00 0.00 90 1008.3
20260506090250 23 267 3.2 8.0 0.00 0.00 0.00 90 1008.3
20260506085743 23 238 1.6 8.0 0.00 0.00 0.00 90 1008.3
20260506085430 23 213 3.2 11.3 0.00 0.00 0.00 90 1008.2
20260506085320 23 232 3.2 8.0 0.00 0.00 0.00 90 1008.2
20260506084225 23 178 3.2 12.9 0.00 0.00 0.00 90 1008.1
20260506083721 23 179 3.2 12.9 0.00 0.00 0.00 90 1008.1
20260506083214 23 237 1.6 8.0 0.00 0.00 0.00 90 1008.2
20260506082708 23 128 1.6 8.0 0.00 0.00 0.00 90 1008.2
20260506082202 23 194 1.6 6.4 0.00 0.00 0.00 90 1008.2
20260506081656 23 200 3.2 6.4 0.00 0.00 0.00 90 1008.3
20260506081150 23 239 1.6 6.4 0.00 0.00 0.00 90 1008.3
20260506080645 23 188 1.6 6.4 0.00 0.00 0.00 90 1008.3
20260506080634 23 224 3.2 6.4 0.00 0.00 0.00 90 1008.3
20260506073325 23 218 1.6 6.4 0.00 0.00 0.00 89 1008.6
20260506072556 23 236 1.6 6.4 0.00 0.00 0.00 89 1008.6
20260506072308 23 196 1.6 6.4 0.00 0.00 0.00 89 1008.4
20260506071543 23 205 1.6 6.4 0.00 0.00 0.00 89 1008.2
20260506071038 23 188 1.6 8.0 0.00 0.00 0.00 89 1008.5
20260506070545 23 214 1.6 8.0 0.00 0.00 0.00 89 1008.5
20260506062444 23 196 0.0 1.6 0.00 0.00 0.00 87 1008.3
20260506061938 23 228 1.6 6.4 0.00 0.00 0.00 87 1008.4
20260506061432 23 197 0.0 6.4 0.00 0.00 0.00 87 1008.5
20260506061146 23 98 0.0 3.2 0.00 0.00 0.00 87 1008.4
20260506060433 24 96 0.0 3.2 0.00 0.00 0.00 87 1008.4
20260506051320 24 212 1.6 6.4 0.00 0.00 0.00 86 1008.2
20260506050814 24 300 0.0 3.2 0.00 0.00 0.00 85 1008.1
20260506050312 25 13 1.6 6.4 0.00 0.00 0.00 85 1008.1
20260506044809 25 184 0.0 4.8 0.00 0.00 0.00 85 1008.3
20260506044532 25 220 0.0 4.8 0.00 0.00 0.00 85 1008.3
20260506043810 25 211 1.6 4.8 0.00 0.00 0.00 85 1008.3
20260506043307 25 219 1.6 4.8 0.00 0.00 0.00 85 1008.4
20260506043029 25 212 1.6 6.4 0.00 0.00 0.00 85 1008.3
20260506042306 25 208 1.6 6.4 0.00 0.00 0.00 85 1008.2
20260506042259 25 229 1.6 4.8 0.00 0.00 0.00 84 1007.9
20260506041304 25 217 1.6 4.8 0.00 0.00 0.00 84 1007.8
20260506040803 25 202 1.6 4.8 0.00 0.00 0.00 84 1007.7
20260506040308 25 216 1.6 8.0 0.00 0.00 0.00 84 1007.6
20260506035801 25 215 1.6 8.0 0.00 0.00 0.00 84 1007.7
20260506035305 25 276 1.6 6.4 0.00 0.00 0.00 84 1007.6
20260506035237 25 271 1.6 8.0 0.00 0.00 0.00 84 1007.4
20260506034301 25 250 3.2 8.0 0.00 0.00 0.00 84 1007.4
20260506033801 25 232 1.6 6.4 0.00 0.00 0.00 84 1007.4
20260506033256 25 229 1.6 6.4 0.00 0.00 0.00 84 1007.3
20260506033016 25 277 1.6 6.4 0.00 0.00 0.00 84 1007.2
20260506032243 25 59 1.6 6.4 0.00 0.00 0.00 83 1007.1
20260506031737 25 194 1.6 6.4 0.00 0.00 0.00 83 1007.0
20260506031231 25 161 1.6 6.4 0.00 0.00 0.00 83 1007.1
20260506030725 25 192 0.0 6.4 0.00 0.00 0.00 83 1007.2
20260506030220 25 103 0.0 3.2 0.00 0.00 0.00 83 1007.1
20260506025715 25 103 0.0 3.2 0.00 0.00 0.00 82 1007.0
20260506025216 25 102 0.0 3.2 0.00 0.00 0.00 82 1006.9
20260506024718 26 112 0.0 3.2 0.00 0.00 0.00 82 1006.7
20260506024213 26 130 0.0 3.2 0.00 0.00 0.00 82 1006.7
20260506023711 26 122 0.0 1.6 0.00 0.00 0.00 81 1006.7
20260506023212 26 121 0.0 3.2 0.00 0.00 0.00 81 1006.8
20260506022709 26 128 0.0 3.2 0.00 0.00 0.00 81 1006.7
20260506022210 26 155 0.0 3.2 0.00 0.00 0.00 80 1006.6
20260506021710 26 161 0.0 3.2 0.00 0.00 0.00 80 1006.6
20260506021210 26 161 0.0 3.2 0.00 0.00 0.00 80 1006.8
20260506020710 26 159 0.0 1.6 0.00 0.00 0.00 80 1006.9
20260506020206 26 159 0.0 3.2 0.00 0.00 0.00 80 1006.8
20260506015706 26 159 0.0 3.2 0.00 0.00 0.00 80 1006.6
20260506015205 26 202 0.0 1.6 0.00 0.00 0.00 79 1006.4
20260506014928 27 202 0.0 1.6 0.00 0.00 0.00 79 1006.4
20260506014432 27 202 0.0 3.2 0.00 0.00 0.00 79 1006.4
20260506013706 27 202 1.6 4.8 0.00 0.00 0.00 78 1006.4
20260506013205 27 199 1.6 4.8 0.00 0.00 0.00 78 1006.3
20260506012706 27 209 0.0 4.8 0.00 0.00 0.00 78 1006.3
20260506012430 27 226 0.0 1.6 0.00 0.00 0.00 77 1006.2
20260506011702 27 226 0.0 1.6 0.00 0.00 0.00 77 1006.3
20260506011201 27 226 0.0 3.2 0.00 0.00 0.00 77 1006.1
20260506010701 27 232 0.0 3.2 0.00 0.00 0.00 77 1006.0
20260506010201 27 217 0.0 4.8 0.00 0.00 0.00 76 1006.1
20260506005701 28 216 0.0 4.8 0.00 0.00 0.00 76 1006.0
20260506005201 28 236 0.0 4.8 0.00 0.00 0.00 76 1005.9
20260506004701 28 236 1.6 4.8 0.00 0.00 0.00 76 1005.7
20260506004202 28 186 1.6 4.8 0.00 0.00 0.00 75 1005.7
20260506003702 28 76 1.6 6.4 0.00 0.00 0.00 75 1005.7
20260506003155 28 67 1.6 6.4 0.00 0.00 0.00 75 1005.6
20260506002655 28 221 0.0 4.8 0.00 0.00 0.00 75 1005.6
20260506002418 28 213 0.0 3.2 0.00 0.00 0.00 75 1005.6
20260506001653 28 213 1.6 6.4 0.00 0.00 0.00 75 1005.5
20260506001631 28 215 1.6 11.3 0.00 0.00 0.00 75 1005.4
20260506000651 28 236 1.6 11.3 0.00 0.00 0.00 75 1005.4
20260506000150 28 200 1.6 9.7 0.00 0.00 0.00 75 1005.5
20260505235647 28 263 3.2 9.7 0.00 0.00 0.00 75 1005.5
20260505235147 28 94 3.2 8.0 0.00 0.00 0.00 75 1005.5
20260505234647 28 233 3.2 8.0 0.00 0.00 0.00 75 1005.4
20260505234409 28 180 3.2 9.7 0.00 0.00 0.00 74 1005.3
20260505233912 28 186 3.2 9.7 0.00 0.00 0.00 74 1005.4
20260505233146 28 228 4.8 12.9 0.00 0.00 0.00 74 1005.5
20260505232646 28 155 4.8 12.9 0.00 0.00 0.00 74 1005.3
20260505232147 28 271 4.8 16.1 0.00 0.00 0.00 74 1005.3
20260505231647 28 288 4.8 16.1 0.00 0.00 0.00 73 1005.3
20260505231147 29 229 4.8 12.9 0.00 0.00 0.00 73 1005.3
20260505230653 29 205 4.8 14.5 0.00 0.00 0.00 73 1005.3
20260505230359 29 255 4.8 14.5 0.00 0.00 0.00 73 1005.4
20260505225630 29 223 4.8 12.9 0.00 0.00 0.00 73 1005.3
20260505225130 29 325 3.2 14.5 0.00 0.00 0.00 73 1005.3
20260505224630 29 151 6.4 17.7 0.00 0.00 0.00 72 1005.4
20260505224130 29 259 6.4 17.7 0.00 0.00 0.00 72 1005.4
20260505223628 29 234 4.8 16.1 0.00 0.00 0.00 72 1005.3
20260505223128 29 211 6.4 17.7 0.00 0.00 0.00 72 1005.2
20260505222628 29 248 6.4 17.7 0.00 0.00 0.00 71 1005.2
20260505222126 29 222 4.8 16.1 0.00 0.00 0.00 71 1005.2
20260505221627 30 190 4.8 14.5 0.00 0.00 0.00 71 1005.3
20260505221347 30 225 4.8 14.5 0.00 0.00 0.00 71 1005.4
20260505220624 30 220 4.8 14.5 0.00 0.00 0.00 71 1005.4
20260505220345 30 189 4.8 14.5 0.00 0.00 0.00 72 1005.4
20260505215624 30 209 4.8 8.0 0.00 0.00 0.00 73 1005.6
20260505215345 29 269 4.8 14.5 0.00 0.00 0.00 73 1005.6
20260505214627 29 233 6.4 14.5 0.00 0.00 0.00 73 1005.7
20260505214122 29 187 6.4 14.5 0.00 0.00 0.00 73 1005.7
20260505213622 29 217 6.4 16.1 0.00 0.00 0.00 72 1005.8
20260505213339 29 202 4.8 16.1 0.00 0.00 0.00 73 1005.8
20260505212610 29 237 6.4 19.3 0.00 0.00 0.00 73 1006.0
20260505212103 29 217 6.4 19.3 0.00 0.00 0.00 73 1006.0
20260505211557 29 202 6.4 16.1 0.00 0.00 0.00 74 1006.0
20260505211052 29 188 6.4 12.9 0.00 0.00 0.00 74 1005.9
20260505210545 28 225 6.4 17.7 0.00 0.00 0.00 74 1006.1
20260505210040 28 204 6.4 17.7 0.00 0.00 0.00 74 1006.0
20260505205534 28 264 6.4 17.7 0.00 0.00 0.00 74 1006.0
20260505205028 28 205 4.8 17.7 0.00 0.00 0.00 74 1006.1
20260505204523 28 254 4.8 17.7 0.00 0.00 0.00 75 1006.3
20260505204016 28 215 4.8 11.3 0.00 0.00 0.00 75 1006.3
20260505203510 28 185 4.8 14.5 0.00 0.00 0.00 75 1006.4
20260505203004 28 329 4.8 17.7 0.00 0.00 0.00 75 1006.4
20260505202458 28 208 6.4 17.7 0.00 0.00 0.00 74 1006.5
20260505201951 28 233 4.8 12.9 0.00 0.00 0.00 75 1006.4
20260505201447 28 300 6.4 12.9 0.00 0.00 0.00 75 1006.5
20260505200940 28 248 6.4 14.5 0.00 0.00 0.00 75 1006.5
20260505200434 28 240 6.4 17.7 0.00 0.00 0.00 75 1006.6
20260505195928 28 239 8.0 17.7 0.00 0.00 0.00 74 1006.7
20260505195422 28 248 8.0 19.3 0.00 0.00 0.00 75 1006.7
20260505194916 28 221 8.0 19.3 0.00 0.00 0.00 75 1006.6
20260505194410 28 197 8.0 17.7 0.00 0.00 0.00 75 1006.8
20260505193905 27 221 8.0 17.7 0.00 0.00 0.00 75 1006.7
20260505193357 28 239 8.0 24.1 0.00 0.00 0.00 75 1006.7
20260505192852 28 190 8.0 24.1 0.00 0.00 0.00 75 1006.7
20260505192347 27 188 8.0 19.3 0.00 0.00 0.00 75 1006.7
20260505191840 27 215 9.7 22.5 0.00 0.00 0.00 75 1006.7
20260505191334 27 211 9.7 22.5 0.00 0.00 0.00 75 1006.7
20260505190827 27 244 9.7 27.4 0.00 0.00 0.00 76 1006.8
20260505190322 27 206 9.7 27.4 0.00 0.00 0.00 76 1006.8
20260505185816 27 200 6.4 19.3 0.00 0.00 0.00 77 1006.7
20260505185546 27 286 6.4 12.9 0.00 0.00 0.00 77 1007.0
20260505184814 27 194 8.0 24.1 0.00 0.00 0.00 78 1006.9
20260505184312 27 254 8.0 24.1 0.00 0.00 0.00 77 1007.0
20260505183812 27 190 8.0 22.5 0.00 0.00 0.00 78 1006.9
20260505183312 26 183 8.0 22.5 0.00 0.00 0.00 78 1006.9
20260505182810 26 267 8.0 16.1 0.00 0.00 0.00 78 1007.0
20260505182311 26 215 8.0 17.7 0.00 0.00 0.00 78 1007.2
20260505181809 26 217 8.0 20.9 0.00 0.00 0.00 78 1007.2
20260505181308 26 220 8.0 20.9 0.00 0.00 0.00 78 1007.3
20260505180820 26 237 9.7 22.5 0.00 0.00 0.00 78 1007.3
20260505180307 26 267 9.7 22.5 0.00 0.00 0.00 78 1007.3
20260505175808 26 224 9.7 22.5 0.00 0.00 0.00 78 1007.3
20260505175308 26 242 9.7 22.5 0.00 0.00 0.00 78 1007.3
20260505175024 26 233 9.7 20.9 0.00 0.00 0.00 79 1007.3
20260505174308 26 246 9.7 22.5 0.00 0.00 0.00 79 1007.3
20260505174031 26 198 9.7 22.5 0.00 0.00 0.00 79 1007.4
20260505173308 26 213 9.7 25.7 0.00 0.00 0.00 80 1007.4
20260505172808 26 200 8.0 25.7 0.00 0.00 0.00 81 1007.3
20260505172305 25 207 8.0 19.3 0.00 0.00 0.00 82 1007.5
20260505171756 25 231 8.0 19.3 0.00 0.00 0.00 81 1007.6
20260505171246 25 245 4.8 14.5 0.00 0.00 0.00 82 1007.6
20260505171011 25 217 4.8 12.9 0.00 0.00 0.00 82 1007.7
20260505170234 25 229 8.0 20.9 0.00 0.00 0.00 82 1007.9
20260505165728 25 342 8.0 20.9 0.00 0.00 0.00 82 1007.9
20260505165223 25 193 4.8 12.9 0.00 0.00 0.00 82 1007.9
20260505164945 25 236 6.4 19.3 0.00 0.00 0.00 83 1007.9
20260505164210 25 229 6.4 19.3 0.00 0.00 0.00 83 1007.7
20260505163705 24 265 6.4 19.3 0.00 0.00 0.00 83 1007.8
20260505163158 24 263 8.0 19.3 0.00 0.00 0.00 83 1008.0
20260505162651 24 266 8.0 30.6 0.00 0.00 0.00 83 1008.0
20260505162146 24 194 8.0 30.6 0.00 0.00 0.00 84 1007.9
20260505161644 24 198 6.4 16.1 0.00 0.00 0.00 84 1007.8
20260505161142 23 173 6.4 19.3 0.00 0.00 0.00 84 1007.8
20260505160642 23 215 6.4 19.3 0.00 0.00 0.00 84 1007.8
20260505160405 23 234 6.4 14.5 0.00 0.00 0.00 84 1007.7
20260505153140 23 216 6.4 17.7 0.00 0.00 0.00 85 1007.8
20260505152640 23 284 4.8 17.7 0.00 0.00 0.00 85 1007.6
20260505152406 23 189 6.4 17.7 0.00 0.00 0.00 85 1007.6
20260505151640 22 215 8.0 22.5 0.00 0.00 0.00 85 1007.5
20260505151141 22 174 6.4 22.5 0.00 0.00 0.00 85 1007.7
20260505150644 22 232 6.4 14.5 0.00 0.00 0.00 85 1007.7
20260505150141 22 279 4.8 14.5 0.00 0.00 0.00 85 1007.7
20260505140634 22 245 4.8 12.9 0.00 0.00 0.00 86 1007.8
20260505140133 22 200 6.4 12.9 0.00 0.00 0.00 86 1007.8
20260505124630 21 271 6.4 17.7 0.00 0.00 0.00 88 1007.6
20260505124129 21 244 4.8 17.7 0.00 0.00 0.00 88 1007.6
20260505123623 21 215 3.2 9.7 0.00 0.00 0.00 88 1007.5
20260505123116 21 222 3.2 9.7 0.00 0.00 0.00 88 1007.4
20260505122611 21 245 4.8 14.5 0.00 0.00 0.00 88 1007.4
20260505122105 21 232 6.4 16.1 0.00 0.00 0.00 88 1007.3
20260505121559 21 248 4.8 16.1 0.00 0.00 0.00 88 1007.3
20260505121053 21 228 4.8 16.1 0.00 0.00 0.00 88 1007.3
20260505120547 21 205 4.8 16.1 0.00 0.00 0.00 88 1007.2
20260505120056 21 225 3.2 14.5 0.00 0.00 0.00 88 1007.0
20260505115543 21 269 3.2 9.7 0.00 0.00 0.00 88 1006.8
20260505115043 21 213 4.8 12.9 0.00 0.00 0.00 88 1006.8
20260505114542 21 236 4.8 12.9 0.00 0.00 0.00 88 1006.9
20260505114308 21 207 3.2 12.9 0.00 0.00 0.00 88 1006.8
20260505113541 21 209 4.8 14.5 0.00 0.00 0.00 88 1006.8
20260505113041 21 238 6.4 16.1 0.00 0.00 0.00 88 1006.9
20260505112542 21 211 4.8 16.1 0.00 0.00 0.00 88 1006.9
20260505112041 21 225 3.2 12.9 0.00 0.00 0.00 88 1007.0
20260505111539 21 231 3.2 12.9 0.00 0.00 0.00 88 1007.0
20260505111039 21 216 3.2 12.9 0.00 0.00 0.00 88 1007.0